Station 42012 (LLNR 138) - ORANGE BEACH - 44 NM SE of Mobile, AL Image indicating link to RSS feed of recent meteorological observations for station 42012


Conditions at 42012 as of
(2:50 am CDT)
0750 GMT on 04/14/2024:
     

Click on the graph icon in the table below to see a time series plot of the last five days of that observation.

5-day plot - Wind Direction Wind Direction (WDIR): SW ( 230 deg true )
5-day plot - Wind Speed Wind Speed (WSPD): 3.9 kts
5-day plot - Wind Gust Wind Gust (GST): 5.8 kts
5-day plot - Wave Height Wave Height (WVHT): 1.0 ft
5-day plot - Dominant Wave Period Dominant Wave Period (DPD): 3 sec
5-day plot - Average Wave Period Average Period (APD): 3.2 sec
5-day plot - Mean Wave Direction Mean Wave Direction (MWD):SSE ( 166 deg true )
5-day plot - Atmospheric Pressure Atmospheric Pressure (PRES):30.18 in
5-day plot - Air Temperature Air Temperature (ATMP): 68.2 °F
5-day plot - Water Temperature Water Temperature (WTMP): 68.5 °F
5-day plot - Dew Point Dew Point (DEWP): 63.1 °F
5-day plot - Wind Speed at 10 Meters Wind Speed at 10 meters (WSPD10M): 5.8 kts
5-day plot - Wind Speed at 20 Meters Wind Speed at 20 meters (WSPD20M): 5.8 kts
5-day plot -  Wind Speed, Wind Gust and Atmospheric Pressure Combined plot of Wind Speed, Gust, and Air Pressure
Supplemental Measurements
Highest 1-minute Wind Speed
Time (CDT)5-day plot - 1-Minute Wind Speed WSPD 5-day plot - 1-Minute Wind Direction WDIR
2:41 am 5.8 kts-
Previous observations
TIME
(CDT)
5-day plot - Wind Direction
WDIR
 
5-day plot - Wind Speed
WSPD
kts
5-day plot - Wind Gust
GST
kts
5-day plot - Wave Height
WVHT
ft
5-day plot - Dominant Wave Period
DPD
sec
5-day plot - Average Wave Period
APD
sec
5-day plot - Mean Wave Direction
MWD
 
5-day plot - Atmospheric Pressure
PRES
in
5-day plot - Pressure Tendency
PTDY
in
5-day plot - Air Temperature
ATMP
°F
5-day plot - Water Temperature
WTMP
°F
5-day plot - Dew Point
DEWP
°F
5-day plot - Salinity
SAL
psu
5-day plot - Visibility
VIS
nmi
5-day plot - Tide (above MLLW)
TIDE
ft
2024-04-14 02:40 am SW 5.8 5.8----30.18- 68.2 68.5 63.1---
2024-04-14 02:30 am SW 5.8 5.8----30.18- 68.2 68.5 63.0---
2024-04-14 02:20 am SW 3.9 5.8 1.0 33.1 S30.18- 68.2 68.5 63.1---
2024-04-14 02:10 am SW 5.8 5.8 1.0-3.1 S30.18- 68.4 68.5 63.0---
2024-04-14 02:00 am SW 5.8 5.8----30.18-0.05 68.2 68.5 63.0---
2024-04-14 01:50 am SW 5.8 5.8 1.0 33.0 S30.19- 68.2 68.4 62.8---
2024-04-14 01:40 am SW 5.8 5.8----30.19- 68.4 68.4 63.1---
2024-04-14 01:30 am SW 3.9 5.8----30.19- 68.4 68.4 63.0---
2024-04-14 01:20 am SW 5.8 5.8 1.0 33.0 SE30.19- 68.4 68.4 62.8---
2024-04-14 01:10 amWSW 5.8 5.8 1.0-3.0 SE30.20- 68.5 68.4 62.8---
2024-04-14 01:00 amWSW 5.8 5.8----30.20-0.04 68.5 68.4 62.8---
2024-04-14 12:50 amWSW 5.8 5.8 1.0 33.0SSE30.21- 68.5 68.4 62.8---
2024-04-14 12:40 amWSW 5.8 7.8----30.21- 68.5 68.4 62.6---
2024-04-14 12:30 amWSW 5.8 7.8----30.21- 68.5 68.4 62.6---
2024-04-14 12:20 amWSW 5.8 7.8 1.0 32.9SSE30.21- 68.5 68.4 62.6---
2024-04-14 12:10 amWSW 5.8 7.8 1.0-2.9SSE30.22- 68.7 68.4 62.8---
2024-04-14 12:00 amWSW 5.8 7.8----30.21-0.02 68.7 68.4 62.8---
2024-04-13 11:50 pmWSW 5.8 7.8 1.0 33.0SSE30.22- 68.7 68.4 62.6---
2024-04-13 11:40 pmWSW 5.8 7.8----30.22- 68.7 68.4 62.4---
2024-04-13 11:30 pmWSW 5.8 7.8----30.22- 68.7 68.4 62.6---
2024-04-13 11:20 pmWSW 7.8 7.8 1.0 32.9SSE30.22- 68.9 68.4 62.6---
2024-04-13 11:10 pmWSW 7.8 9.7 1.0-2.9SSE30.22- 68.9 68.4 62.6---
2024-04-13 11:00 pmWSW 7.8 9.7----30.23+0.00 68.9 68.5 62.6---
2024-04-13 10:50 pmWSW 7.8 9.7 1.0 33.0SSE30.23- 68.9 68.4 62.4---
2024-04-13 10:40 pmWSW 7.8 9.7----30.23- 68.9 68.4 62.2---
2024-04-13 10:30 pmWSW 7.8 9.7----30.24- 69.1 68.2 62.1---
2024-04-13 10:20 pmWSW 7.8 9.7 1.0 32.9SSE30.24- 68.9 68.2 62.1---
2024-04-13 10:10 pmWSW 9.7 11.7 1.0-2.9SSE30.24- 68.9 68.2 61.9---
2024-04-13 10:00 pmWSW 9.7 11.7----30.24+0.02 69.1 68.2 62.1---
2024-04-13 09:50 pmWSW 7.8 9.7 1.3 32.9 SE30.24- 69.1 68.2 61.7---
2024-04-13 09:40 pmWSW 9.7 11.7 1.3-2.9 SE30.24- 68.9 68.2 61.3---
2024-04-13 09:30 pmWSW 9.7 9.7----30.24- 68.9 68.2 61.3---
2024-04-13 09:20 pmWSW 7.8 9.7 1.3 32.9 S30.23- 69.1 68.2 61.5---
2024-04-13 09:10 pm SW 9.7 11.7 1.3-2.9 S30.23- 69.1 68.2 61.2---
2024-04-13 09:00 pm SW 7.8 9.7----30.24+0.02 69.1 68.2 61.2---
2024-04-13 08:50 pm SW 7.8 9.7 1.3 32.9SSE30.24- 69.1 68.2 61.2---
2024-04-13 08:40 pm SW 9.7 9.7 1.3-2.9SSE30.23- 69.1 68.2 60.6---
2024-04-13 08:30 pm SW 9.7 11.7----30.23- 69.1 68.2 60.6---
2024-04-13 08:20 pm SW 9.7 11.7 1.3 32.9 S30.23- 69.1 68.2 60.4---
2024-04-13 08:10 pm SW 9.7 11.7 1.3-2.9 S30.23- 69.1 68.2 60.6---
2024-04-13 08:00 pm SW 9.7 11.7----30.23+0.00 69.1 68.2 60.3---
2024-04-13 07:50 pm SW 9.7 11.7 1.3 32.9 S30.22- 69.1 68.2 60.1---
2024-04-13 07:40 pm SW 9.7 11.7----30.22- 69.1 68.4 60.3---
2024-04-13 07:30 pmSSW 9.7 11.7----30.22- 69.1 68.2 60.1---
2024-04-13 07:20 pmSSW 9.7 11.7 1.3 32.9SSE30.22- 69.1 68.2 60.1---
2024-04-13 07:10 pmSSW 9.7 11.7 1.3-2.9SSE30.21- 69.1 68.2 59.9---
2024-04-13 07:00 pmSSW 9.7 11.7----30.21-0.03 69.3 68.2 60.1---
2024-04-13 06:50 pmSSW 9.7 11.7 1.3 32.9SSE30.21- 69.3 68.2 59.7---
2024-04-13 06:40 pmSSW 9.7 11.7----30.22- 69.4 68.2 59.5---
2024-04-13 06:30 pmSSW 9.7 11.7----30.21- 69.4 68.2 59.2---
2024-04-13 06:20 pmSSW 9.7 11.7 1.3 32.8SSE30.22- 69.4 68.4 58.8---
2024-04-13 06:10 pmSSW 9.7 11.7 1.3-2.8SSE30.22- 69.6 68.4 59.0---
2024-04-13 06:00 pmSSW 9.7 13.6----30.22-0.03 69.6 68.4 58.6---
2024-04-13 05:50 pmSSW 9.7 13.6 1.3 32.8 S30.22- 69.6 68.4 58.1---
2024-04-13 05:40 pmSSW 11.7 11.7----30.22- 69.4 68.4 58.3---
2024-04-13 05:30 pmSSW 9.7 13.6----30.22- 69.4 68.4 58.3---
2024-04-13 05:20 pmSSW 11.7 11.7 1.3 32.8 S30.22- 69.4 68.4 57.9---
2024-04-13 05:10 pmSSW 11.7 13.6 1.3-2.8 S30.23- 69.4 68.4 57.9---
2024-04-13 05:00 pmSSW 11.7 13.6----30.23-0.05 69.4 68.4 57.7---
2024-04-13 04:50 pmSSW 11.7 13.6 1.3 32.8 SE30.23- 69.4 68.2 57.9---
2024-04-13 04:40 pmSSW 11.7 13.6 1.3-2.8 SE30.23- 69.4 68.4 57.7---
2024-04-13 04:30 pm S 11.7 13.6----30.24- 69.4 68.4 57.7---
2024-04-13 04:20 pm S 11.7 13.6 1.3 42.8 S30.24- 69.4 68.5 57.4---
2024-04-13 04:10 pm S 11.7 13.6 1.3-2.8 S30.24- 69.4 68.5 57.7---
2024-04-13 04:00 pm S 11.7 13.6----30.24-0.06 69.4 68.5 57.7---
2024-04-13 03:50 pm S 11.7 13.6 1.0 22.8SSE30.24- 69.3 68.7 57.9---
2024-04-13 03:40 pm S 11.7 13.6----30.24- 69.3 68.5 58.1---
2024-04-13 03:30 pm S 11.7 13.6----30.24- 69.3 68.5 57.7---
2024-04-13 03:20 pm S 11.7 13.6 1.0 22.8SSE30.24- 69.3 68.5 57.2---
2024-04-13 03:10 pm S 11.7 13.6 1.0-2.8SSE30.24- 69.3 68.5 57.9---
2024-04-13 03:00 pm S 11.7 13.6----30.25-0.07 69.1 68.5 57.6---
2024-04-13 02:50 pm S 11.7 13.6 1.0 33.1ESE30.25- 69.1 68.5 58.1---
2024-04-13 02:40 pmSSE 11.7 13.6----30.26- 69.1 68.5 57.9---
2024-04-13 02:30 pmSSE 11.7 13.6----30.27- 69.1 68.5 57.7---
2024-04-13 02:20 pmSSE 9.7 11.7 1.0 33.1ESE30.27- 69.1 68.5 57.9---
2024-04-13 02:10 pmSSE 9.7 11.7 1.0-3.1ESE30.27- 68.9 68.5 57.7---
2024-04-13 02:00 pmSSE 9.7 11.7----30.28-0.05 68.9 68.5 57.7---
2024-04-13 01:50 pmSSE 9.7 11.7 1.0 83.1SSE30.28- 69.1 68.5 58.1---
2024-04-13 01:40 pmSSE 9.7 11.7----30.29- 69.1 68.5 57.7---
2024-04-13 01:30 pm SE 9.7 11.7----30.29- 69.1 68.5 57.7---
2024-04-13 01:20 pm SE 9.7 11.7 1.0 33.2 E30.29- 69.1 68.7 57.4---
2024-04-13 01:10 pm SE 7.8 9.7----30.29- 69.1 68.5 58.1---
2024-04-13 01:00 pm SE 7.8 9.7----30.30-0.03 69.1 68.5 57.7---
2024-04-13 12:50 pm SE 7.8 9.7 1.0 33.1 E30.30- 68.9 68.5 57.4---
2024-04-13 12:40 pm SE 7.8 9.7----30.31- 68.9 68.4 57.2---
2024-04-13 12:30 pmESE 7.8 9.7----30.31- 68.7 68.4 57.6---
2024-04-13 12:20 pmESE 7.8 9.7 1.0 73.2 SE30.31- 68.7 68.4 57.7---
2024-04-13 12:10 pmESE 7.8 9.7----30.31- 68.5 68.2 57.6---
2024-04-13 12:00 pmESE 7.8 9.7----30.32-0.01 68.4 68.2 57.7---
2024-04-13 11:50 amESE 7.8 9.7 1.0 33.0 E30.32- 68.4 68.2 57.0---
2024-04-13 11:40 amESE 7.8 9.7----30.32- 68.2 68.2 56.8---
2024-04-13 11:30 amESE 9.7 9.7----30.33- 68.0 68.2 56.7---
2024-04-13 11:20 amESE 7.8 9.7 1.0 33.1 E30.33- 68.0 68.2 57.0---
2024-04-13 11:10 amESE 9.7 9.7 1.0-3.1 E30.33- 67.8 68.2 57.2---
2024-04-13 11:00 am E 7.8 9.7----30.33+0.01 67.8 68.0 56.7---
2024-04-13 10:50 am E 7.8 9.7 1.0 33.1NNE30.33- 67.8 68.0 56.3---
2024-04-13 10:40 am E 9.7 11.7----30.33- 67.8 68.0 55.2---
2024-04-13 10:30 am E 9.7 11.7----30.33- 67.5 68.0 55.2---
2024-04-13 10:20 am E 9.7 9.7 1.0 83.2SSE30.33- 67.5 68.0 55.9---
2024-04-13 10:10 am E 9.7 9.7 1.0-3.2SSE30.33- 67.5 67.8 56.1---
2024-04-13 10:00 am E 7.8 9.7----30.33+0.03 67.3 67.8 55.9---
2024-04-13 09:50 am E 7.8 9.7 1.3 33.2ENE30.33- 67.3 67.8 55.6---
2024-04-13 09:40 amENE 7.8 9.7----30.33- 67.3 67.8 55.2---
2024-04-13 09:30 amENE 7.8 9.7----30.33- 67.1 67.8 54.5---
2024-04-13 09:20 amENE 9.7 9.7 1.0 33.3ENE30.33- 67.3 67.8 54.9---
2024-04-13 09:10 amENE 7.8 9.7----30.33- 67.3 67.8 55.2---
2024-04-13 09:00 amENE 7.8 9.7----30.33+0.05 67.1 67.6 55.9---
2024-04-13 08:50 amENE 7.8 9.7 1.0 63.2SSW30.33- 67.1 67.6 55.4---
2024-04-13 08:40 amENE 7.8 9.7----30.33- 67.1 67.6 55.4---
2024-04-13 08:30 amENE 7.8 9.7----30.32- 67.1 67.6 55.0---
2024-04-13 08:20 am NE 9.7 9.7 1.3 33.1 NE30.32- 66.9 67.6 54.3---
2024-04-13 08:10 am NE 7.8 11.7 1.3-3.1 NE30.32- 66.9 67.6 53.8---
2024-04-13 08:00 am NE 9.7 11.7----30.32+0.05 66.9 67.6 53.1---
2024-04-13 07:50 am NE 9.7 11.7 1.3 33.2 NE30.32- 66.9 67.6 52.5---
2024-04-13 07:40 am NE 9.7 11.7----30.32- 66.7 67.6 53.2---
2024-04-13 07:30 am NE 9.7 9.7----30.32- 66.6 67.6 53.1---
2024-04-13 07:20 am NE 9.7 11.7 1.6 33.2 NE30.31- 66.4 67.6 52.9---
2024-04-13 07:10 am NE 9.7 11.7 1.6-3.2 NE30.31- 66.2 67.6 53.4---
2024-04-13 07:00 am NE 9.7 11.7----30.30+0.04 66.2 67.6 53.6---
2024-04-13 06:50 amNNE 11.7 13.6 1.3 33.1 NE30.30- 66.2 67.6 53.1---
2024-04-13 06:40 amNNE 11.7 13.6----30.29- 66.2 67.8 53.2---
2024-04-13 06:30 amNNE 11.7 13.6----30.29- 66.4 67.8 53.2---
2024-04-13 06:20 amNNE 11.7 13.6 1.6 33.1NNE30.28- 66.7 67.8 53.6---
2024-04-13 06:10 amNNE 11.7 13.6 1.6-3.1NNE30.28- 66.7 67.8 52.7---
2024-04-13 06:00 amNNE 11.7 13.6----30.28+0.02 66.9 67.8 52.2---
2024-04-13 05:50 amNNE 11.7 13.6 1.6 33.2NNE30.28- 67.1- 52.3---
2024-04-13 05:40 amNNE 11.7 13.6----30.27- 67.3 67.8 52.5---
2024-04-13 05:30 amNNE 11.7 13.6----30.28- 67.3 68.0 53.6---
2024-04-13 05:20 amNNE 9.7 11.7 1.6 33.1 N30.28- 67.1 68.0 54.3---
2024-04-13 05:10 amNNE 11.7 13.6 1.6-3.1 N30.28- 67.1 68.0 53.2---
2024-04-13 05:00 amNNE 11.7 13.6----30.28+0.01 67.3 68.0 52.7---
2024-04-13 04:50 amNNE 11.7 13.6 1.6 33.1 N30.27- 67.3 68.0 55.2---
2024-04-13 04:40 amNNE 11.7 15.5----30.27- 67.5 68.0 53.6---
2024-04-13 04:30 am N 11.7 13.6----30.27- 67.6 68.0 54.9---
2024-04-13 04:20 am N 11.7 15.5 1.6 33.1 N30.27- 67.6 68.0 54.1---
2024-04-13 04:10 am N 11.7 15.5 1.6-3.1 N30.27- 67.6 68.0 54.5---
2024-04-13 04:00 am N 11.7 15.5----30.27+0.00 67.6 68.0 54.3---
2024-04-13 03:50 am N 13.6 17.5 2.0 33.1NNW30.27- 67.8 68.0 53.1---
2024-04-13 03:40 am N 11.7 15.5 2.0-3.1NNW30.27- 68.0 68.0 55.2---
2024-04-13 03:30 am N 13.6 15.5----30.27- 68.0 68.0 54.1---
2024-04-13 03:20 am N 13.6 15.5 1.6 33.0NNW30.27- 68.0 68.0 54.1---
2024-04-13 03:10 am N 13.6 15.5 1.6-3.0NNW30.26- 68.0 68.2 53.8---
2024-04-13 03:00 am N 13.6 17.5----30.26+0.00 68.2 68.2 54.7---
2024-04-13 02:50 am N 13.6 17.5 1.6 83.1 S30.26- 68.4 68.2 54.5---

Detailed Wave Summary
for 42012 as of (2:40 am CDT)
0740 GMT on 04/14/2024:

These wave data are displayed in rounded times.

     

Click on the graph icon in the table below to see a time series plot of the last five days of that observation.

5-day plot - Significant Wave Height Significant Wave Height (WVHT): 1.0 ft
5-day plot - Swell Height Swell Height (SwH): 0.3 ft
5-day plot - Swell Period Swell Period (SwP): 4.2 sec
5-day plot - Swell Direction Swell Direction (SwD):SSE
5-day plot - Wind Wave Height Wind Wave Height (WWH): 0.7 ft
5-day plot - Wind Wave Period Wind Wave Period (WWP): 3.1 sec
5-day plot - Wind Wave Direction Wind Wave Direction (WWD):SSE
5-day plot - Average Wave Period Average Wave Period (APD): 3.2 sec
Previous observations
TIME
(CDT)
5-day plot - Wave Height
WVHT
ft
5-day plot - Swell Height
SwH
ft
5-day plot - Swell Period
SwP
sec
5-day plot - Swell Direction
SwD
 
5-day plot - Wind Wave Height
WWH
ft
5-day plot - Wind Wave Period
WWP
sec
5-day plot - Wind Wave Direction
WWD
 
5-day plot - Wave Steepness
STEEPNESS
 
5-day plot - Average Wave Period
APD
sec
2024-04-14 02:10 am 1.0 0.3 7.1SSE 0.7 3.0 S N/A 3.1
2024-04-14 01:40 am 1.0 0.3 8.3 S 0.7 3.0 S N/A 3.0
2024-04-14 01:10 am 1.0 0.3 4.2SSE 0.7 3.1 SE N/A 3.0
2024-04-14 12:40 am 1.0 0.3 7.7 S 1.0 3.1 SSE N/A 3.0
2024-04-14 12:10 am 1.0 0.3 7.1 S 1.0 3.1 SSE N/A 2.9
2024-04-13 11:40 pm 1.0 0.3 7.1 S 1.0 3.1 SSE N/A 3.0
2024-04-13 11:10 pm 1.0 0.3 4.2 SE 1.0 3.1 SSE N/A 2.9
2024-04-13 10:40 pm 1.0 0.3 7.1SSE 1.0 3.1 SSE N/A 3.0
2024-04-13 10:10 pm 1.0 0.3 7.1 S 1.0 3.0 SSE N/A 2.9
2024-04-13 09:40 pm 1.3 0.3 7.1 S 1.0 3.3 SE N/A 2.9
2024-04-13 09:10 pm 1.3 0.3 7.1 S 1.3 2.9 S N/A 2.9
2024-04-13 08:40 pm 1.3 0.3 7.7SSW 1.0 3.3 SSE N/A 2.9
2024-04-13 08:10 pm 1.3 0.3 6.7SSE 1.3 2.9 S N/A 2.9
2024-04-13 07:40 pm 1.3 0.3 7.7SSW 1.3 2.9 S N/A 2.9
2024-04-13 07:10 pm 1.3 0.3 7.1SSE 1.3 2.9 SSE N/A 2.9
2024-04-13 06:40 pm 1.3 0.3 8.3 S 1.0 3.0 SSE N/A 2.9
2024-04-13 06:10 pm 1.3 0.3 6.7SSE 1.3 2.7 SSE N/A 2.8
2024-04-13 05:40 pm 1.3 0.3 5.3SSW 1.3 2.6 S N/A 2.8
2024-04-13 05:10 pm 1.3 0.3 7.7SSW 1.0 2.6 S N/A 2.8
2024-04-13 04:40 pm 1.3 0.3 7.7SSW 1.0 2.7 SE N/A 2.8
2024-04-13 04:10 pm 1.3 0.3 5.6SSW 1.3 3.6 S N/A 2.8
2024-04-13 03:40 pm 1.0 0.3 7.1SSW 1.0 2.4 SSE N/A 2.8
2024-04-13 03:10 pm 1.0 0.3 6.7 S 1.0 2.2 SSE N/A 2.8
2024-04-13 02:40 pm 1.0 0.3 7.1 S 1.0 3.0 ESE N/A 3.1
2024-04-13 02:10 pm 1.0 0.3 7.7SSW 1.0 2.9 ESE N/A 3.1
2024-04-13 01:40 pm 1.0 0.7 7.7SSE 0.7 3.1 ESE N/A 3.1
2024-04-13 01:10 pm 1.0 0.7 6.7 S 0.7 2.7 E N/A 3.2
2024-04-13 12:40 pm 1.0 0.7 5.3SSW 0.7 2.9 E N/A 3.1
2024-04-13 12:10 pm 1.0 0.7 7.1 SE 0.7 2.7 E N/A 3.2
2024-04-13 11:40 am 1.0 0.7 7.7 SE 1.0 2.6 E N/A 3.0
2024-04-13 11:10 am 1.0 0.7 6.2SSW 1.0 2.9 E N/A 3.1
2024-04-13 10:40 am 1.0 0.7 5.3 SW 1.0 2.7 NNE N/A 3.1
2024-04-13 10:10 am 1.0 0.7 7.7SSE 1.0 2.5 ENE N/A 3.2
2024-04-13 09:40 am 1.3 0.7 5.9SSW 1.0 2.9 ENE N/A 3.2
2024-04-13 09:10 am 1.0 0.7 5.9 SW 0.7 2.7 ENE N/A 3.3
2024-04-13 08:40 am 1.0 0.7 5.9SSW 1.0 2.9 ENE N/A 3.2
2024-04-13 08:10 am 1.3 0.7 5.3 SW 1.0 2.7 NE N/A 3.1
2024-04-13 07:40 am 1.3 0.7 5.9SSW 1.0 2.7 NE N/A 3.2
2024-04-13 07:10 am 1.6 1.0 5.6 SW 1.3 2.7 NE N/A 3.2
2024-04-13 06:40 am 1.3 0.7 7.7 S 1.3 2.9 NE N/A 3.1
2024-04-13 06:10 am 1.6 0.7 7.1 S 1.3 2.9 NNE N/A 3.1
2024-04-13 05:40 am 1.6 0.7 6.2SSW 1.3 2.9 NNE N/A 3.2
2024-04-13 05:10 am 1.6 0.7 7.7SSE 1.6 2.9 N N/A 3.1
2024-04-13 04:40 am 1.6 0.7 7.1 S 1.6 2.9 N N/A 3.1
2024-04-13 04:10 am 1.6 0.7 7.7SSE 1.6 2.9 N N/A 3.1
2024-04-13 03:40 am 2.0 1.0 6.2SSW 1.6 2.7 NNW N/A 3.1
2024-04-13 03:10 am 1.6 1.0 7.1SSW 1.6 2.6 NNW N/A 3.0

Plot of wave energy versus frequency (and period)